Retour au catalogue

QIANFAN-132

ActifCommunicationsPO
NORAD 69078·PAYLOAD·🇨🇳 China

Lancé May 12, 2026 depuis Taiyuan Satellite Launch Center

Loading…

Prochains Passages (prochaines 24 heures)

TLE

FraisSource: Space-Track

Époque: Sep 14, 2026, 21:46 UTC

1 69078U 26104F   26257.90758596  .00000120  00000-0  16775-3 0  9996
2 69078  88.9907 332.3658 0002415 101.9879 258.1543 13.51021404 17243

Suivez QIANFAN-132 en temps réel avec AllMySat

Download on the App Store